Regional Weather Roundup
Issued by NWS

Home | Current Version | Previous Version | Text Only | Print | Product List | Glossary Off
Versions: 1 2 3 4 5 6 7 8 9 10 11 12 13 14 15 16 17 18 19 20 21 22 23 24 25 26 27 28 29 30 31 32 33 34 35 36 37 38 39 40 41 42 43 44 45 46 47 48 49 50

000
ASUS43 KOAX 052002
RWRNE

WEATHER ROUNDUP FOR NEBRASKA
NATIONAL WEATHER SERVICE OMAHA NE
200 PM CST THU MAR 05 2015

NOTES: SATELLITE DATA IS BEING USED TO AUGMENT CLOUD COVER ABOVE
       12000 FEET.
       "FAIR" INDICATES FEW OR NO CLOUDS BELOW 12,000 FEET WITH NO
       SIGNIFICANT WEATHER AND/OR OBSTRUCTIONS TO VISIBILITY.

  * THESE STATIONS DO NOT REPORT WEATHER SUCH AS RAIN...SNOW OR FOG.

NEZ001>004-019>022-054>056-052100-
NEBRASKA PANHANDLE

CITY           SKY/WX    TMP DP  RH WIND       PRES   REMARKS
SCOTTSBLUFF    PTSUNNY   46  14  27 NW15      30.20
ALLIANCE       CLOUDY    43   9  24 NW22G30   30.16
CHADRON        MOSUNNY   37  22  54 W18G25    30.17  WCI  27
KIMBALL        PTSUNNY   40  15  35 NW23G30   30.17F WCI  30
SIDNEY         PTSUNNY   44  14  29 NW18      30.20
$$

NEZ057>060-069>072-079>082-052100-
SOUTHWEST NEBRASKA

CITY           SKY/WX    TMP DP  RH WIND       PRES   REMARKS
NORTH PLATTE   MOSUNNY   45   7  21 W13       30.21
IMPERIAL         N/A     46   9  22 NW16      30.22
LEXINGTON      SUNNY     38  10  30 S15       30.27F WCI  30
MCCOOK         SUNNY     47   8  20 W10G20    30.26
OGALLALA       MOSUNNY   47  15  27 W16G23    30.18F
$$

NEZ005>010-023>029-035>040-094-052100-
NORTH CENTRAL NEBRASKA

CITY           SKY/WX    TMP DP  RH WIND       PRES   REMARKS
VALENTINE      MOSUNNY   42   6  22 SW7       30.16F
AINSWORTH      SUNNY     39   4  22 SW9       30.18F WCI  33
BROKEN BOW     SUNNY     39  10  30 SW15G21   30.24  WCI  31
ORD            SUNNY     35   5  28 S15       30.27  WCI  25
$$

NEZ041-046>049-061>064-073>077-083>087-052100-
SOUTH CENTRAL NEBRASKA

CITY           SKY/WX    TMP DP  RH WIND       PRES   REMARKS
GRAND ISLAND   SUNNY     34   9  35 S12G22    30.34  WCI  25
AURORA         SUNNY     32   6  33 S14       30.35F WCI  22
HASTINGS       SUNNY     35   6  29 S10G17    30.33  WCI  27
HEBRON         SUNNY     33   2  27 S13       30.41F WCI  24
HOLDREGE       SUNNY     37  10  32 SW12G21   30.30F WCI  29
KEARNEY *      SUNNY     36  12  38 SW15      30.31F WCI  26
YORK           SUNNY     32   7  34 S15       30.38F WCI  22
$$

NEZ011>018-030>034-042>045-052100-
NORTHEAST NEBRASKA

CITY           SKY/WX    TMP DP  RH WIND       PRES   REMARKS
NORFOLK        SUNNY     32   3  29 S13       30.34  WCI  22
ALBION         SUNNY     32   3  29 S15G22    30.32F WCI  22
BLAIR          SUNNY     28   2  33 SW8       30.43F WCI  20
COLUMBUS *     SUNNY     30   3  31 S13G21    30.39F WCI  20
FREMONT        SUNNY     29   2  31 S13       30.43F WCI  19
TEKAMAH        MIX PCPN  28   3  34 SW9       30.44  WCI  19
WAYNE          SUNNY     30   1  29 S16       30.37F WCI  19
$$

NEZ050>053-065>068-078-088>093-052100-
SOUTHEAST NEBRASKA

CITY           SKY/WX    TMP DP  RH WIND       PRES   REMARKS
LINCOLN        SUNNY     30   4  33 S14       30.44  WCI  19
OMAHA EPPLEY   SUNNY     25   2  37 S10       30.47  WCI  15
BEATRICE       SUNNY     31   4  32 S9G20     30.44F WCI  23
FALLS CITY     SUNNY     28   0  29 SE6       30.49  WCI  22
NEBRASKA CITY  SUNNY     27  -6  24 S5        30.47F WCI  21
$$

NEZ044-045-051>053-067-052100-
OMAHA AREA

CITY           SKY/WX    TMP DP  RH WIND       PRES   REMARKS
OMAHA EPPLEY   SUNNY     25   2  37 S10       30.47  WCI  15
BLAIR          SUNNY     28   2  33 SW8       30.43F WCI  20
FREMONT        SUNNY     29   2  31 S13       30.43F WCI  19
MILLARD        SUNNY     28   3  34 S3        30.46F
OFFUTT AFB     SUNNY     26   2  36 S9        30.46  WCI  16
WAHOO          FAIR      30   0  27 SW10G16   30.43F WCI  21
$$


USA.gov is the U.S. government's official web portal to all federal, state and local government web resources and services.